SVW251 EDDM-EDDH

Flight info

Callsign SVW251
Flight time N/A
Altitude 36000
Route INPUD2N/26R INPUD Y102 UPALA M726 NARUS DCT ABGUS DCT DIRBO/N0424F230 T902 RARUP RARUP3P
Aircraft A319/M-SDFGHIJ3J4J5RWXYZ/SB1D1

Departure

Time N/A
Airport Munich Airport (EDDM)

Arrival

Time 2026-04-24 19:02
Airport Hamburg Helmut Schmidt Airport (EDDH)
Time Latitude Longitude Altitude Speed Heading
2026-04-24 18:54 53.63018 10.51215 6023 ft 250 kts 320°
2026-04-24 18:55 53.65567 10.47297 5415 ft 246 kts 320°
2026-04-24 18:55 53.66824 10.45364 5115 ft 241 kts 319°
2026-04-24 18:55 53.68038 10.43496 4805 ft 231 kts 319°
2026-04-24 18:56 53.69207 10.41706 4499 ft 223 kts 320°
2026-04-24 18:56 53.70335 10.39978 4193 ft 216 kts 320°
2026-04-24 18:56 53.71421 10.38294 3995 ft 207 kts 319°
2026-04-24 18:56 53.72462 10.36670 3969 ft 197 kts 319°
2026-04-24 18:57 53.73430 10.35148 3969 ft 186 kts 319°
2026-04-24 18:57 53.74356 10.33630 3970 ft 186 kts 313°
2026-04-24 18:57 53.74783 10.31593 3963 ft 188 kts 277°
2026-04-24 18:57 53.74604 10.29398 3775 ft 190 kts 266°
2026-04-24 18:58 53.74324 10.27226 3551 ft 188 kts 266°
2026-04-24 18:58 53.74032 10.25084 3326 ft 186 kts 266°
2026-04-24 18:58 53.73743 10.22991 3107 ft 184 kts 266°
2026-04-24 18:58 53.73458 10.20917 3011 ft 179 kts 266°
2026-04-24 18:59 53.72951 10.18972 2976 ft 190 kts 242°
2026-04-24 18:59 53.72098 10.17219 2752 ft 195 kts 238°
2026-04-24 18:59 53.71222 10.15458 2497 ft 197 kts 238°
2026-04-24 18:59 53.70340 10.13669 2227 ft 199 kts 237°
2026-04-24 19:00 53.69463 10.11888 1979 ft 194 kts 237°
2026-04-24 19:00 53.68901 10.10744 1782 ft 189 kts 237°
2026-04-24 19:00 53.68077 10.09068 1514 ft 180 kts 237°
2026-04-24 19:00 53.67309 10.07511 1270 ft 164 kts 237°
2026-04-24 19:01 53.66611 10.06094 1057 ft 151 kts 237°
2026-04-24 19:01 53.65965 10.04779 840 ft 141 kts 236°
2026-04-24 19:01 53.65357 10.03544 649 ft 133 kts 236°
2026-04-24 19:01 53.64785 10.02380 465 ft 124 kts 234°
2026-04-24 19:02 53.64242 10.01290 283 ft 119 kts 235°
2026-04-24 19:02 53.63733 10.00242 122 ft 114 kts 235°
2026-04-24 19:02 53.63244 9.99269 50 ft 98 kts 237°
2026-04-24 19:02 53.62921 9.98586 45 ft 41 kts 221°
2026-04-24 19:03 53.62733 9.98476 46 ft 13 kts 179°
2026-04-24 19:03 53.62693 9.98506 47 ft 5 kts 119°
2026-04-24 19:03 53.62716 9.98603 47 ft 14 kts 51°
2026-04-24 19:03 53.62779 9.98733 47 ft 9 kts 50°
2026-04-24 19:04 53.62809 9.98794 47 ft 0 kts 50°
2026-04-24 19:04 53.62821 9.98817 47 ft 5 kts 50°
2026-04-24 19:04 53.62839 9.98880 47 ft 7 kts 90°
2026-04-24 19:04 53.62804 9.98953 47 ft 10 kts 156°
2026-04-24 19:05 53.62818 9.99047 46 ft 10 kts 63°
2026-04-24 19:05 53.62841 9.99120 47 ft 4 kts 63°
2026-04-24 19:05 53.62843 9.99126 47 ft 0 kts 63°